Terminal Aerodrome Forecast
Issued by NWS Nashville, TN

Home | Current Version | Previous Version | Text Only | Print | Product List | Glossary On
Versions: 1 2 3 4 5 6 7 8 9 10 11 12 13 14 15 16 17 18 19 20
000
FTUS44 KOHX 211700
TAFBNA
TAF
KBNA 211721Z 2118/2218 10006KT P6SM SCT250
     FM220000 13005KT P6SM BKN035
     FM220600 16006KT P6SM OVC025
     FM221200 16008KT P6SM OVC015 PROB30 2214/2218 4SM -DZ BR=

USA.gov is the U.S. government's official web portal to all federal, state and local government web resources and services.